Regional Weather Roundup
Issued by NWS Green Bay, WI

Home | Current Version | Previous Version | Text Only | Print | Product List | Glossary On
Versions: 1 2 3 4 5 6 7 8 9 10 11 12 13 14 15 16 17 18 19 20 21 22 23 24 25 26 27 28 29 30 31 32 33 34 35 36 37 38 39 40 41 42 43 44 45 46 47 48 49 50
000
ASUS43 KGRB 251411
RWRGRB

NORTH-CENTRAL AND NORTHEAST WISCONSIN REGIONAL WEATHER ROUNDUP
NATIONAL WEATHER SERVICE GREEN BAY WI
900 AM CDT SAT MAR 25 2017

WIZ005-009-010>012-018-019-251500-
NORTH CENTRAL WISCONSIN

CITY           SKY/WX    TMP DP  RH WIND       PRES   REMARKS
IRONWOOD       CLOUDY    33  29  85 E9        30.27F
MANITOWISH WTR CLOUDY    32  32 100 NE9       30.23S
ARBOR VITAE    CLOUDY    34  31  89 E8        30.22S
EAGLE RIVER    CLOUDY    32  31  94 E9        30.23S
LAND O LAKES   CLOUDY    32  31  96 E6        30.26S
RHINELANDER    CLOUDY    34  30  85 E15G21    30.22S
PHILLIPS       CLOUDY    33  30  91 E9G16     30.21R
ANTIGO         CLOUDY    32  31  94 E10G17    30.22S
TOMAHAWK       CLOUDY    33  28  83 E9G17     30.23R
MERRILL        CLOUDY    34  30  86 E12G21    30.22R
$$

WIZ013-073-251500-
NORTHEAST WISCONSIN

CITY           SKY/WX    TMP DP  RH WIND       PRES   REMARKS
IRON MOUNTAIN  CLOUDY    34  28  79 NE8       30.26F
MARINETTE        N/A    N/A N/A N/A MISG        N/A
OCONTO         CLOUDY    35  32  90 NE8       30.27R
$$

WIZ017-030-035>037-045-251500-
CENTRAL WISCONSIN

CITY           SKY/WX    TMP DP  RH WIND       PRES   REMARKS
MEDFORD        CLOUDY    32  29  89 E16       30.19R
WAUSAU         CLOUDY    34  31  88 E10G22    30.20R
MOSINEE        CLOUDY    34  34 100 NE20      30.21R
MARSHFIELD     CLOUDY    35  31  85 E15G25    30.16S
WISC RAPIDS    CLOUDY    36  33  89 E13G24    30.18S
STEVENS POINT  CLOUDY    34  32  92 NE16G24   30.19S
WAUPACA        CLOUDY    37  33  88 NE8G17    30.21S FOG
SHAWANO        CLOUDY    37  33  86 E14       30.25R
CLINTONVILLE   CLOUDY    36  32  87 NE17G24   30.23R
WAUTOMA        MIX PCPN  35  33  92 E16       30.19R
$$

WIZ038-039-048-051-251500-
FOX VALLEY

CITY           SKY/WX    TMP DP  RH WIND       PRES   REMARKS
NWS GREEN BAY  CLOUDY    36  36 100 NE17      30.23R
APPLETON       CLOUDY    34  34 100 NE15G23   30.18S FOG
OSHKOSH        CLOUDY    36  33  89 NE13      30.19R
FOND DU LAC    CLOUDY    37  33  85 E15       30.18R
$$

WIZ022-050-052-251500-
EAST CENTRAL WISCONSIN

CITY           SKY/WX    TMP DP  RH WIND       PRES   REMARKS
EPHRAIM        CLOUDY    34  34  98 E13G23    30.27R
WASHINGTON ISL CLOUDY    34  32  92 E13       30.28S
STURGEON BAY   CLOUDY    36  33  89 E10G20    30.27R
MANITOWOC      CLOUDY    37  34  89 NE14G21   30.22S
SHEBOYGAN      CLOUDY    36  34  92 NE17      30.20R FOG
$$

LMZ563-521-522-541>543-251500-
LAKESHORE

STATION/POSITION TIME  TEMP    WIND        PRES    VSBY  WAVE
                       AIR SEA DIR/SP/G                  HT/PER
                 (UTC) (F)     (DEG/KT/KT) (MB)    (MI)  (FT/S)
SHEBOYGAN LKSHOR 1400   36      40/ 18/ 20 1023.0R
KEWAUNEE LKSHORE 1348   37      60/ 12/ 20 1023.2R
NORTHPORT PIER   1340   35      60/ 14/ 18 1025.7R
SISTER BAY LKSHO 1335   36      10/  8/ 14   N/A
CHAMBERS ISLAND  1340   34      30/ 11/ 15 1024.7R
MENOMINEE LKSHOR 1348   33      30/ 16/ 18 1024.4R
$$




USA.gov is the U.S. government's official web portal to all federal, state and local government web resources and services.